Radiation Dose at Monitoring Post of Fukushima Daini Nuclear Power Station
Date,Time,MP-1(microSv/h),MP-2(microSv/h),MP-3(microSv/h),MP-4(microSv/h),MP-5(microSv/h),MP-6(microSv/h),MP-7(microSv/h),Wind Direction,Wind Velocity(m/s),Rain
2023/11/29,00:00,0.150,0.135,0.215,0.206,0.210,0.121,0.078,west,2.2,No
2023/11/29,00:10,0.150,0.136,0.216,0.205,0.210,0.120,0.078,west,4.7,Yes
2023/11/29,00:20,0.151,0.136,0.215,0.204,0.210,0.120,0.078,west,4.6,Yes
2023/11/29,00:30,0.150,0.137,0.216,0.205,0.210,0.120,0.078,west-southwest,4.3,Yes
2023/11/29,00:40,0.150,0.137,0.216,0.204,0.210,0.121,0.078,west,3.8,Yes
2023/11/29,00:50,0.151,0.136,0.216,0.205,0.210,0.121,0.077,southwest,4.0,No
2023/11/29,01:00,0.151,0.136,0.215,0.205,0.211,0.121,0.078,west-southwest,4.2,No
2023/11/29,01:10,0.151,0.137,0.216,0.204,0.210,0.122,0.079,west-southwest,5.3,No
2023/11/29,01:20,0.151,0.136,0.216,0.205,0.209,0.121,0.078,west-southwest,6.0,No
2023/11/29,01:30,0.150,0.135,0.216,0.206,0.211,0.121,0.077,west-southwest,5.2,No
2023/11/29,01:40,0.150,0.135,0.215,0.204,0.209,0.121,0.078,west-southwest,5.0,Yes
2023/11/29,01:50,0.151,0.136,0.216,0.204,0.211,0.120,0.077,west-southwest,4.9,Yes
2023/11/29,02:00,0.151,0.136,0.215,0.204,0.209,0.121,0.078,west-southwest,5.2,No
2023/11/29,02:10,0.151,0.136,0.215,0.206,0.210,0.120,0.078,west-southwest,6.1,No
2023/11/29,02:20,0.150,0.135,0.214,0.204,0.210,0.121,0.078,west-southwest,5.3,Yes
2023/11/29,02:30,0.149,0.136,0.215,0.205,0.210,0.120,0.078,west,4.5,Yes
2023/11/29,02:40,0.149,0.135,0.217,0.205,0.210,0.121,0.078,west,4.7,Yes
2023/11/29,02:50,0.150,0.135,0.215,0.205,0.210,0.121,0.078,west-northwest,4.7,Yes
2023/11/29,03:00,0.150,0.136,0.215,0.203,0.208,0.121,0.078,west,5.1,Yes
2023/11/29,03:10,0.151,0.136,0.216,0.203,0.210,0.121,0.078,west,4.8,No
2023/11/29,03:20,0.150,0.135,0.216,0.204,0.210,0.121,0.078,west-southwest,5.4,No
2023/11/29,03:30,0.151,0.136,0.217,0.204,0.210,0.120,0.078,west-southwest,6.0,No
2023/11/29,03:40,0.151,0.136,0.215,0.204,0.210,0.120,0.078,west-southwest,4.4,No
2023/11/29,03:50,0.150,0.135,0.216,0.204,0.210,0.120,0.078,west-southwest,4.5,No
2023/11/29,04:00,0.149,0.135,0.215,0.205,0.210,0.121,0.078,west-southwest,5.0,No
2023/11/29,04:10,0.151,0.135,0.215,0.205,0.210,0.121,0.079,west-southwest,5.6,No
2023/11/29,04:20,0.150,0.136,0.215,0.205,0.210,0.121,0.078,west-southwest,6.3,Yes
2023/11/29,04:30,0.151,0.135,0.216,0.203,0.208,0.121,0.078,west-southwest,6.1,Yes
2023/11/29,04:40,0.149,0.136,0.215,0.204,0.210,0.122,0.077,west,6.2,No
2023/11/29,04:50,0.150,0.136,0.214,0.205,0.209,0.121,0.077,west,6.5,No
2023/11/29,05:00,0.151,0.136,0.216,0.203,0.210,0.121,0.078,west,4.1,No
2023/11/29,05:10,0.150,0.136,0.214,0.203,0.210,0.121,0.077,west-southwest,2.7,No
2023/11/29,05:20,0.149,0.135,0.216,0.204,0.210,0.121,0.078,southwest,2.5,No
2023/11/29,05:30,0.150,0.136,0.215,0.204,0.209,0.121,0.078,southwest,4.0,No
2023/11/29,05:40,0.150,0.136,0.215,0.204,0.210,0.121,0.078,southwest,4.5,No
2023/11/29,05:50,0.148,0.135,0.215,0.204,0.210,0.121,0.078,south-southwest,3.8,No
2023/11/29,06:00,0.151,0.135,0.215,0.204,0.209,0.120,0.078,southwest,3.8,No
2023/11/29,06:10,0.150,0.136,0.216,0.204,0.210,0.120,0.079,southwest,3.5,No
2023/11/29,06:20,0.151,0.136,0.214,0.205,0.209,0.121,0.078,south-southwest,2.2,No
2023/11/29,06:30,0.149,0.135,0.214,0.205,0.209,0.121,0.077,southwest,1.9,No
2023/11/29,06:40,0.150,0.135,0.216,0.205,0.211,0.121,0.078,southwest,2.2,No
2023/11/29,06:50,0.151,0.134,0.215,0.205,0.210,0.121,0.078,southwest,2.8,No
2023/11/29,07:00,0.150,0.136,0.217,0.204,0.210,0.121,0.078,southwest,4.2,No
2023/11/29,07:10,0.149,0.136,0.214,0.205,0.209,0.120,0.077,southwest,4.0,No
2023/11/29,07:20,0.149,0.136,0.215,0.203,0.210,0.120,0.077,southwest,3.2,No
2023/11/29,07:30,0.149,0.136,0.215,0.204,0.209,0.121,0.078,west-southwest,3.9,No
2023/11/29,07:40,0.150,0.136,0.215,0.205,0.209,0.121,0.078,west-southwest,3.8,No
2023/11/29,07:50,0.150,0.135,0.215,0.204,0.210,0.120,0.078,west-southwest,4.8,No
2023/11/29,08:00,0.150,0.136,0.216,0.204,0.210,0.121,0.078,west-southwest,4.0,No
2023/11/29,08:10,0.150,0.135,0.215,0.204,0.210,0.121,0.079,west-southwest,2.3,No
2023/11/29,08:20,0.150,0.135,0.215,0.204,0.210,0.121,0.077,west-southwest,1.1,No
2023/11/29,08:30,0.151,0.135,0.215,0.204,0.210,0.121,0.079,west,1.7,No
2023/11/29,08:40,0.150,0.135,0.216,0.203,0.210,0.120,0.078,west-northwest,1.8,No
2023/11/29,08:50,0.151,0.136,0.214,0.203,0.210,0.120,0.078,west-northwest,0.9,No
2023/11/29,09:00,0.151,0.136,0.214,0.205,0.210,0.120,0.078,-,CALM,No
2023/11/29,09:10,0.149,0.135,0.216,0.203,0.210,0.120,0.078,southeast,0.8,No
2023/11/29,09:20,0.150,0.135,0.215,0.204,0.212,0.120,0.077,-,CALM,No
2023/11/29,09:30,0.150,0.136,0.215,0.203,0.209,0.121,0.078,-,CALM,No
2023/11/29,09:40,0.150,0.135,0.216,0.204,0.210,0.120,0.078,east,1.1,No
2023/11/29,09:50,0.150,0.136,0.214,0.204,0.210,0.121,0.079,-,CALM,No
2023/11/29,10:00,0.149,0.136,0.215,0.203,0.211,0.121,0.079,-,CALM,No
2023/11/29,10:10,0.150,0.137,0.215,0.205,0.210,0.122,0.079,north-northeast,1.0,No
2023/11/29,10:20,0.149,0.134,0.214,0.204,0.211,0.121,0.078,east-northeast,0.9,No
2023/11/29,10:30,0.150,0.135,0.215,0.204,0.209,0.120,0.079,east,1.3,No
2023/11/29,10:40,0.149,0.135,0.214,0.203,0.210,0.121,0.077,east-southeast,1.9,No
2023/11/29,10:50,0.151,0.136,0.216,0.204,0.209,0.121,0.079,east-southeast,1.8,No
2023/11/29,11:00,0.149,0.136,0.216,0.203,0.211,0.121,0.079,southeast,2.0,No
2023/11/29,11:10,0.150,0.135,0.214,0.205,0.209,0.121,0.078,east,2.0,No
2023/11/29,11:20,0.148,0.136,0.216,0.205,0.210,0.121,0.078,east,0.9,No
2023/11/29,11:30,0.150,0.135,0.215,0.204,0.209,0.122,0.078,east-southeast,1.2,No
2023/11/29,11:40,0.149,0.135,0.216,0.205,0.211,0.122,0.079,east-northeast,0.8,No
2023/11/29,11:50,0.150,0.134,0.214,0.205,0.210,0.122,0.079,east,1.8,No
2023/11/29,12:00,0.149,0.136,0.216,0.203,0.211,0.121,0.078,east,1.3,No
2023/11/29,12:10,0.149,0.135,0.213,0.205,0.210,0.122,0.078,east-northeast,1.5,No
2023/11/29,12:20,0.151,0.136,0.215,0.203,0.209,0.121,0.078,northeast,2.9,No
2023/11/29,12:30,0.150,0.135,0.214,0.205,0.211,0.121,0.078,northeast,2.8,No
2023/11/29,12:40,0.150,0.136,0.215,0.203,0.210,0.121,0.078,northeast,2.2,No
2023/11/29,12:50,0.149,0.135,0.214,0.205,0.211,0.121,0.078,north-northeast,1.7,No
2023/11/29,13:00,0.150,0.136,0.215,0.202,0.209,0.121,0.079,east-northeast,0.8,No
2023/11/29,13:10,0.149,0.135,0.216,0.204,0.211,0.120,0.078,west,4.4,No
2023/11/29,13:20,0.150,0.136,0.215,0.204,0.210,0.120,0.078,southeast,0.9,No
2023/11/29,13:30,0.150,0.136,0.216,0.205,0.211,0.121,0.078,east-southeast,2.0,No
2023/11/29,13:40,0.149,0.136,0.215,0.205,0.209,0.120,0.078,south-southeast,1.5,No
2023/11/29,13:50,0.149,0.135,0.216,0.204,0.210,0.121,0.079,northwest,0.9,No
2023/11/29,14:00,0.150,0.136,0.215,0.205,0.208,0.120,0.079,west-southwest,2.3,No
2023/11/29,14:10,0.150,0.136,0.215,0.204,0.211,0.121,0.078,west-northwest,3.6,No
2023/11/29,14:20,0.150,0.136,0.215,0.204,0.209,0.121,0.078,west,4.0,No
2023/11/29,14:30,0.150,0.136,0.215,0.205,0.211,0.122,0.078,west-southwest,2.3,No
2023/11/29,14:40,0.150,0.135,0.216,0.204,0.209,0.121,0.078,west,5.2,No
2023/11/29,14:50,0.149,0.137,0.215,0.205,0.211,0.120,0.077,west,7.3,No
2023/11/29,15:00,0.150,0.135,0.216,0.204,0.210,0.121,0.078,west,3.9,No
2023/11/29,15:10,0.148,0.136,0.215,0.205,0.211,0.121,0.078,west,4.2,No
2023/11/29,15:20,0.151,0.136,0.215,0.204,0.210,0.121,0.078,west,4.5,No
2023/11/29,15:30,0.150,0.136,0.216,0.205,0.210,0.120,0.078,west,7.3,No
2023/11/29,15:40,0.149,0.135,0.215,0.205,0.211,0.121,0.078,west-northwest,6.9,No
2023/11/29,15:50,0.150,0.136,0.215,0.203,0.210,0.120,0.077,west-northwest,7.4,No
2023/11/29,16:00,0.150,0.135,0.216,0.204,0.211,0.121,0.078,west-northwest,7.4,No
2023/11/29,16:10,0.151,0.136,0.215,0.205,0.210,0.120,0.078,west-northwest,6.6,No
2023/11/29,16:20,0.150,0.136,0.214,0.204,0.210,0.120,0.078,west,6.1,No
2023/11/29,16:30,0.149,0.136,0.215,0.203,0.211,0.121,0.078,west,6.5,No
2023/11/29,16:40,0.151,0.136,0.215,0.205,0.209,0.121,0.078,west,8.1,No
2023/11/29,16:50,0.150,0.136,0.215,0.205,0.210,0.121,0.077,west,7.3,No
2023/11/29,17:00,0.150,0.136,0.215,0.204,0.210,0.120,0.078,west-northwest,7.7,No
2023/11/29,17:10,0.149,0.136,0.215,0.205,0.208,0.120,0.078,west-northwest,9.8,No
2023/11/29,17:20,0.151,0.135,0.217,0.204,0.210,0.121,0.077,west-northwest,10.0,No
2023/11/29,17:30,0.150,0.136,0.215,0.204,0.210,0.121,0.077,west-northwest,11.1,No
2023/11/29,17:40,0.150,0.136,0.216,0.204,0.209,0.121,0.077,west-northwest,10.9,No
2023/11/29,17:50,0.150,0.136,0.215,0.204,0.211,0.121,0.078,west-northwest,8.7,No
2023/11/29,18:00,0.150,0.135,0.215,0.204,0.211,0.121,0.078,northwest,6.4,No
2023/11/29,18:10,0.150,0.136,0.214,0.205,0.209,0.121,0.078,west,8.7,No
2023/11/29,18:20,0.151,0.135,0.216,0.206,0.211,0.122,0.078,west-northwest,7.0,No
2023/11/29,18:30,0.150,0.136,0.215,0.204,0.211,0.122,0.079,west-northwest,8.2,No
2023/11/29,18:40,0.150,0.135,0.215,0.204,0.211,0.121,0.078,west-northwest,5.5,No
2023/11/29,18:50,0.150,0.136,0.215,0.204,0.210,0.121,0.078,west-northwest,5.4,No
2023/11/29,19:00,0.150,0.136,0.215,0.204,0.210,0.121,0.078,west-northwest,4.3,No
2023/11/29,19:10,0.150,0.136,0.217,0.204,0.211,0.121,0.078,west-northwest,3.1,No
2023/11/29,19:20,0.150,0.136,0.214,0.204,0.210,0.121,0.078,west-northwest,5.9,No
2023/11/29,19:30,0.150,0.137,0.214,0.203,0.209,0.121,0.078,west-northwest,5.8,No
2023/11/29,19:40,0.151,0.136,0.216,0.204,0.210,0.121,0.078,west-northwest,5.8,No
2023/11/29,19:50,0.151,0.137,0.216,0.204,0.210,0.121,0.078,west-northwest,5.6,No
2023/11/29,20:00,0.149,0.136,0.215,0.204,0.211,0.121,0.078,west-northwest,4.5,No
2023/11/29,20:10,0.150,0.135,0.216,0.205,0.210,0.120,0.078,west-northwest,4.3,No
2023/11/29,20:20,0.150,0.136,0.216,0.204,0.209,0.121,0.078,west-northwest,6.8,No
2023/11/29,20:30,0.150,0.136,0.216,0.204,0.210,0.121,0.077,northwest,4.3,No
2023/11/29,20:40,0.151,0.135,0.215,0.204,0.210,0.121,0.078,northwest,5.2,No
2023/11/29,20:50,0.150,0.136,0.215,0.205,0.208,0.122,0.078,west-northwest,6.2,No
2023/11/29,21:00,0.150,0.135,0.214,0.203,0.211,0.121,0.078,west-northwest,5.7,No
2023/11/29,21:10,0.150,0.135,0.216,0.205,0.210,0.120,0.078,west-northwest,6.0,No
2023/11/29,21:20,0.150,0.135,0.215,0.204,0.209,0.121,0.077,west-northwest,5.1,No
2023/11/29,21:30,0.150,0.135,0.216,0.205,0.210,0.120,0.077,west-northwest,4.9,No
2023/11/29,21:40,0.151,0.135,0.215,0.204,0.210,0.120,0.077,west-northwest,7.5,No
2023/11/29,21:50,0.150,0.136,0.216,0.203,0.210,0.120,0.078,west-northwest,10.0,No
2023/11/29,22:00,0.150,0.136,0.216,0.205,0.210,0.121,0.078,west-northwest,10.1,No
2023/11/29,22:10,0.150,0.136,0.216,0.204,0.210,0.120,0.078,west-northwest,9.6,No
2023/11/29,22:20,0.150,0.135,0.216,0.205,0.209,0.121,0.078,west,9.5,No
2023/11/29,22:30,0.150,0.135,0.215,0.204,0.210,0.121,0.078,west,9.0,No
2023/11/29,22:40,0.150,0.136,0.215,0.203,0.210,0.120,0.078,west-northwest,10.0,No
2023/11/29,22:50,0.150,0.135,0.216,0.205,0.210,0.121,0.077,west,9.6,No
2023/11/29,23:00,0.150,0.135,0.216,0.204,0.211,0.121,0.078,west-northwest,8.8,No
2023/11/29,23:10,0.150,0.136,0.216,0.206,0.209,0.120,0.077,west-northwest,10.1,No
2023/11/29,23:20,0.150,0.136,0.215,0.204,0.211,0.121,0.078,west-northwest,10.9,No
2023/11/29,23:30,0.151,0.136,0.216,0.204,0.211,0.121,0.078,west-northwest,10.9,No
2023/11/29,23:40,0.150,0.135,0.216,0.204,0.210,0.120,0.078,west-northwest,12.0,No
2023/11/29,23:50,0.149,0.136,0.216,0.204,0.211,0.121,0.078,west-northwest,10.9,No
